[[{"header":{"parameterUnit":"m.s-1","parameterCategory":1,"la1":30.2991,"la2":30.254,"lo1":-89.0895,"lo2":-89.0444,"dy":0.0017,"dx":0.0017,"nx":28,"ny":28,"refTime":"2024-03-02T09:00:00:Z","depth":0,"parameterNumber":2,"parameterNumberName":"U-component_of_WINDS"},"data":[0,0,0,0,0,0,0,0,0,0,0,0,0,0,0,0,0,0,0,0,0,0,0,0,0,0,0,0,0,0,0,0,0,0,0,0,0,0,0,0,0,0,0,0,0,0,0,0,0,0,0,0,0,0,0,0,0,0,-4.2135,-4.2136,0,-4.2223,-4.2224,-4.2225,-4.2192,-4.219,-4.2188,-4.2186,-4.2276,-4.228,-4.2284,0,0,0,0,0,0,0,0,0,0,0,0,0,-4.1938,-4.1942,-4.2135,-4.2136,-4.2137,-4.2223,-4.2224,-4.2226,-4.2193,-4.219,-4.2188,-4.2185,-4.2274,-4.228,-4.2285,0,0,0,0,0,0,0,0,0,0,0,0,0,-4.2025,-4.1943,-4.2135,-4.2131,-4.2132,-4.2223,-4.2224,-4.2226,-4.2193,-4.219,-4.2187,-4.2184,-4.2273,-4.2279,-4.2285,-4.2385,0,0,-4.2305,-4.2308,0,0,0,0,0,0,0,0,-4.202,-4.2032,-4.213,-4.2131,-4.2132,-4.2194,-4.2188,-4.2279,-4.2194,-4.217,-4.2186,-4.2183,-4.2251,-4.2259,-4.2282,-4.2389,-4.2393,-4.2305,-4.2309,-4.2312,-4.2314,0,0,0,0,0,0,0,-4.2014,-4.2028,-4.217,-4.2132,-4.2133,-4.2125,-4.2134,-4.2205,-4.2226,-4.2172,-4.2169,-4.218,-4.2251,-4.2276,-4.2284,-4.2395,-4.2305,-4.2311,-4.2315,-4.2317,-4.259,-4.2594,0,0,0,0,0,0,-4.2008,-4.2023,-4.2167,-4.2172,-4.2067,-4.2131,-4.2141,-4.2177,-4.2225,-4.223,-4.2183,-4.2179,-4.2267,-4.2277,-4.2287,-4.2408,-4.2312,-4.2318,-4.2322,-4.2587,-4.2591,-4.2595,0,0,0,0,0,0,-4.2003,-4.2021,-4.2163,-4.2097,-4.2115,-4.2138,-4.2178,-4.218,-4.2205,-4.2234,-4.2237,-4.2205,-4.2265,-4.2278,-4.2362,-4.241,-4.2321,-4.2327,-4.2583,-4.2588,-4.2593,-4.2649,0,0,0,0,0,0,-4.1998,-4.2019,-4.2057,-4.2098,-4.2119,-4.2236,-4.2181,-4.2184,-4.2217,-4.2212,-4.2255,-4.2259,-4.2263,-4.2352,-4.2368,-4.2417,-4.2332,-4.2579,-4.2585,-4.2591,-4.2643,-4.2656,-4.2667,0,0,0,0,0,-4.1991,-4.2069,-4.2059,-4.2077,-4.2166,-4.2239,-4.225,-4.2253,-4.2221,-4.2259,-4.2278,-4.2258,-4.2403,-4.2361,-4.2378,-4.2431,-4.2575,-4.2583,-4.2591,-4.2638,-4.2653,-4.2666,0,0,0,0,0,0,-4.2031,-4.2074,-4.2064,-4.2157,-4.2195,-4.2233,-4.2281,-4.2269,-4.2317,-4.231,-4.2312,-4.2322,-4.2408,-4.2428,-4.2381,-4.2531,-4.2484,-4.2496,-4.2514,-4.2529,-4.2541,-4.2533,-4.2337,0,0,0,0,0,-4.2051,-4.2107,-4.2141,-4.222,-4.224,-4.2258,-4.229,-4.2289,-4.2328,-4.2343,-4.2368,-4.2407,-4.2461,-4.2496,-4.2548,-4.2647,-4.2656,-4.2692,-4.2703,-4.2713,-4.2722,-4.2777,-4.2793,-4.262,-4.262,-4.262,0,0,-4.2092,-4.2122,-4.2157,-4.2229,-4.2258,-4.2316,-4.2271,-4.2334,-4.2377,-4.2353,-4.2433,-4.2453,-4.2497,-4.2589,-4.263,-4.2608,-4.2773,-4.2723,-4.273,-4.2734,-4.2787,-4.2803,-4.2818,-4.2625,-4.2624,-4.2623,0,0,-4.2196,-4.2225,-4.2294,-4.2326,-4.2371,-4.2383,-4.24,-4.2441,-4.2454,-4.2535,-4.2519,-4.2571,-4.2664,-4.2696,-4.2724,-4.2845,-4.2829,-4.2862,-4.2922,-4.2975,-4.2989,-4.3001,-4.3044,-4.3059,-4.2871,-4.2872,-4.2872,0,-4.2241,-4.2327,-4.2332,-4.2397,-4.2429,-4.2412,-4.2483,-4.2513,-4.2573,-4.2596,-4.257,-4.2688,-4.2716,-4.2816,-4.2846,-4.2869,-4.2889,-4.2855,-4.2987,-4.2999,-4.301,-4.3051,-4.3068,-4.2875,-4.2875,-4.2874,-4.2874,0,-4.2381,-4.2442,-4.2492,-4.2552,-4.2591,-4.2658,-4.2673,-4.2712,-4.2709,-4.2724,-4.2808,-4.2842,-4.29,-4.2925,-4.2922,-4.3025,-4.301,-4.2986,-4.2939,-4.3031,-4.3069,-4.3085,-4.288,-4.2879,-4.2878,-4.2877,0,0,-4.2509,-4.2573,-4.2591,-4.2619,-4.2669,-4.2716,-4.2784,-4.2843,-4.2876,-4.2919,-4.2976,-4.3057,-4.3036,-4.3069,-4.307,-4.3118,-4.3212,-4.3088,-4.3089,-4.3109,-4.3328,-4.3344,-4.3362,-4.3203,-4.3206,-4.3208,-4.3324,0,-4.2616,-4.2735,-4.2743,-4.285,-4.2907,-4.2894,-4.2953,-4.2991,-4.3008,-4.3059,-4.3078,-4.3135,-4.3103,-4.3123,-4.3169,-4.319,-4.3255,-4.3182,-4.3255,-4.3257,-4.3243,-4.3382,-4.3399,-4.3507,-4.3339,-4.3342,-4.3343,0,-4.2757,-4.2805,-4.2919,-4.2964,-4.2988,-4.3041,-4.3097,-4.3146,-4.3189,-4.3198,-4.3237,-4.3232,-4.3303,-4.3255,-4.3353,-4.3303,-4.3334,-4.3349,-4.3353,-4.3359,-4.3304,-4.339,-4.3541,-4.3557,-4.3367,-4.3365,-4.3364,0,-4.2838,-4.2932,-4.3013,-4.3037,-4.3092,-4.313,-4.3154,-4.3195,-4.323,-4.3279,-4.3302,-4.3359,-4.3389,-4.3433,-4.3445,-4.3409,-4.3542,-4.3496,-4.3552,-4.3551,-4.3578,-4.3576,-4.3735,-4.3601,-4.36,-4.36,-4.36,0,-4.2956,-4.3026,-4.3051,-4.31,-4.3179,-4.3188,-4.3265,-4.3287,-4.3325,-4.3379,-4.3371,-4.3422,-4.3435,-4.3489,-4.3498,-4.3578,-4.3592,-4.3601,-4.3602,-4.3601,-4.36,-4.3619,-4.3612,-4.3604,-4.3604,-4.3603,-4.3602,0,-4.3059,-4.3078,-4.3165,-4.3211,-4.3224,-4.328,-4.3319,-4.3367,-4.3385,-4.3453,-4.347,-4.3497,-4.356,-4.3577,-4.3652,-4.3659,-4.3752,-4.3747,-4.3737,-4.3737,-4.3791,-4.3786,-4.3967,-4.3991,-4.3843,-4.3844,-4.3846,0,-4.3132,-4.3186,-4.3238,-4.3274,-4.3301,-4.3359,-4.3396,-4.3408,-4.3447,-4.3503,-4.3544,-4.3607,-4.3657,-4.3758,-4.3785,-4.3843,-4.3838,-4.3898,-4.3847,-4.3844,-4.3838,-4.3834,-4.384,-4.3907,-4.3909,-4.391,-4.3911,0,-4.3259,-4.3267,-4.3321,-4.3379,-4.3423,-4.3469,-4.3513,-4.3544,-4.3562,-4.3607,-4.3671,-4.3711,-4.3789,-4.3851,-4.391,-4.3936,-4.3927,-4.3928,-4.3944,-4.3941,-4.3933,-4.3938,-4.3762,-4.3923,-4.3921,-4.3921,-4.392,-4.3919,-4.3349,-4.3397,-4.3442,-4.3502,-4.3538,-4.358,-4.3627,-4.3652,-4.3707,-4.3771,-4.3776,-4.3847,-4.3892,-4.397,-4.4,-4.4056,-4.4037,-4.4061,-4.4066,-4.4071,-4.4076,-4.3926,-4.4067,-4.4066,-4.4066,-4.4066,-4.4066,0,-4.3475,-4.3505,-4.3561,-4.3623,-4.3672,-4.3661,-4.3711,-4.3751,-4.3814,-4.3857,-4.3908,-4.3983,-4.4045,-4.4077,-4.4139,-4.4177,-4.4175,-4.4193,-4.4189,-4.4195,-4.4088,-4.4068,-4.4194,-4.4194,-4.4194,-4.4194,-4.4193,-4.4193,-4.3546,-4.3627,-4.3641,-4.374,-4.3769,-4.3838,-4.3867,-4.3907,-4.3941,-4.4026,-4.4078,-4.4099,-4.4139,-4.4204,-4.426,-4.4268,-4.429,-4.431,-4.4316,-4.4215,-4.4202,-4.419,-4.4171,-4.4315,-4.4316,-4.4418,-4.4419,-4.4419]},{"header":{"parameterUnit":"m.s-1","parameterCategory":1,"la1":30.2991,"la2":30.254,"lo1":-89.0895,"lo2":-89.0444,"dy":0.0017,"dx":0.0017,"nx":28,"ny":28,"refTime":"2024-03-02T09:00:00:Z","depth":0,"parameterNumber":3,"parameterNumberName":"V-component_of_WINDS"},"data":[0,0,0,0,0,0,0,0,0,0,0,0,0,0,0,0,0,0,0,0,0,0,0,0,0,0,0,0,0,0,0,0,0,0,0,0,0,0,0,0,0,0,0,0,0,0,0,0,0,0,0,0,0,0,0,0,0,0,1.5099,1.51,0,1.5209,1.521,1.5211,1.5297,1.5298,1.5299,1.5299,1.5407,1.5409,1.5411,0,0,0,0,0,0,0,0,0,0,0,0,0,1.4961,1.4963,1.5099,1.51,1.5102,1.5209,1.521,1.5212,1.5297,1.5298,1.5299,1.53,1.5406,1.5409,1.5411,0,0,0,0,0,0,0,0,0,0,0,0,0,1.504,1.4964,1.5099,1.5157,1.5164,1.5208,1.521,1.5212,1.5297,1.5298,1.5299,1.53,1.5406,1.5409,1.5412,1.5406,0,0,1.5421,1.5423,0,0,0,0,0,0,0,0,1.5036,1.5045,1.5147,1.5153,1.516,1.5241,1.5201,1.5277,1.5296,1.5246,1.5299,1.5301,1.535,1.5358,1.5376,1.5411,1.5416,1.5422,1.5424,1.5425,1.5426,0,0,0,0,0,0,0,1.503,1.5041,1.5142,1.5149,1.5157,1.5177,1.519,1.5216,1.5289,1.525,1.5257,1.5269,1.5354,1.5373,1.5379,1.5417,1.5422,1.5424,1.5426,1.5427,1.5455,1.5454,0,0,0,0,0,0,1.5016,1.5036,1.5139,1.5146,1.51,1.5179,1.5193,1.5213,1.529,1.5302,1.5268,1.5273,1.5367,1.5375,1.5383,1.5383,1.5425,1.5428,1.543,1.5456,1.5455,1.5454,0,0,0,0,0,0,1.5013,1.5024,1.5134,1.5093,1.5108,1.518,1.5202,1.5215,1.5234,1.5303,1.5316,1.5273,1.5368,1.5379,1.5401,1.5388,1.5429,1.5432,1.5458,1.5456,1.5454,1.5381,0,0,0,0,0,0,1.5008,1.5023,1.5021,1.5092,1.511,1.515,1.5201,1.5216,1.5239,1.5247,1.5311,1.5323,1.537,1.5395,1.5404,1.5393,1.5434,1.5459,1.5457,1.5455,1.5385,1.5377,1.537,0,0,0,0,0,1.5003,1.4995,1.5021,1.5033,1.511,1.5149,1.516,1.5215,1.5238,1.5237,1.5282,1.5321,1.5388,1.5397,1.5407,1.5397,1.546,1.5458,1.5455,1.5388,1.5379,1.537,0,0,0,0,0,0,1.4919,1.5005,1.5035,1.5049,1.5092,1.5164,1.5164,1.5202,1.5238,1.5243,1.5308,1.5322,1.5337,1.5369,1.5378,1.5396,1.5429,1.5428,1.5375,1.5366,1.5359,1.5351,1.5437,0,0,0,0,0,1.4902,1.4928,1.5001,1.5007,1.5027,1.5092,1.5111,1.515,1.5196,1.5214,1.526,1.5302,1.5333,1.5351,1.5383,1.539,1.5406,1.5388,1.5381,1.5375,1.5373,1.5381,1.5374,1.5445,1.5445,1.5446,0,0,1.4867,1.4918,1.4929,1.4991,1.5029,1.5053,1.5106,1.5129,1.5148,1.5217,1.5241,1.5276,1.5328,1.5343,1.5351,1.537,1.5357,1.5371,1.5366,1.5368,1.5378,1.5371,1.5365,1.5444,1.5444,1.5444,0,0,1.4817,1.4857,1.4868,1.4905,1.4962,1.5005,1.5008,1.5075,1.5102,1.5128,1.518,1.5203,1.5254,1.5289,1.5314,1.5279,1.5317,1.5288,1.5249,1.5256,1.5251,1.5246,1.5235,1.523,1.5286,1.5286,1.5286,0,1.4766,1.4806,1.4867,1.4889,1.4915,1.498,1.4991,1.5024,1.5087,1.5103,1.5124,1.5191,1.523,1.5255,1.5247,1.5264,1.5269,1.528,1.5247,1.5243,1.5239,1.5229,1.5225,1.5282,1.5282,1.5283,1.5283,0,1.4742,1.4769,1.477,1.4833,1.4859,1.4874,1.4938,1.4957,1.4994,1.5036,1.5062,1.5111,1.5156,1.5164,1.52,1.5195,1.5205,1.5235,1.5269,1.5228,1.5219,1.5216,1.5277,1.5278,1.5279,1.528,0,0,1.4639,1.4738,1.4737,1.4767,1.4836,1.4858,1.4877,1.4922,1.4938,1.498,1.4997,1.5041,1.507,1.5098,1.5138,1.5144,1.5115,1.5174,1.5176,1.5162,1.5114,1.5091,1.5086,1.5141,1.5141,1.514,1.511,0,1.46,1.464,1.4697,1.4717,1.4743,1.4807,1.4824,1.4868,1.4908,1.4935,1.4979,1.5009,1.5045,1.5062,1.5071,1.5117,1.5107,1.512,1.5158,1.5158,1.5143,1.5082,1.5057,1.5026,1.5107,1.5107,1.5107,0,1.4559,1.4601,1.4624,1.4693,1.4707,1.4721,1.4768,1.4794,1.4845,1.4874,1.4906,1.4951,1.4974,1.5005,1.5039,1.5047,1.5066,1.5091,1.5091,1.5096,1.513,1.5086,1.5018,1.5013,1.5102,1.5102,1.5103,0,1.4484,1.4545,1.4568,1.4591,1.4672,1.4681,1.4714,1.4767,1.4792,1.4832,1.4849,1.4891,1.4914,1.4946,1.5001,1.5018,1.5028,1.5064,1.5053,1.5051,1.5051,1.5051,1.4986,1.5063,1.5063,1.5063,1.5063,0,1.4434,1.4446,1.4535,1.4549,1.4565,1.463,1.4644,1.4683,1.473,1.4753,1.481,1.4829,1.4901,1.4929,1.4971,1.4993,1.5003,1.5027,1.5038,1.5022,1.5019,1.5035,1.5039,1.5062,1.5062,1.5062,1.5063,0,1.4352,1.4412,1.4441,1.4516,1.4535,1.4544,1.4608,1.4624,1.4668,1.4696,1.4706,1.4775,1.4811,1.4869,1.4922,1.4951,1.4965,1.4984,1.4948,1.4955,1.4941,1.4942,1.4884,1.4881,1.4959,1.4958,1.4957,0,1.4316,1.4327,1.4405,1.4425,1.4458,1.4489,1.4515,1.458,1.4605,1.4666,1.4674,1.4715,1.4752,1.4806,1.486,1.4901,1.4922,1.4899,1.4928,1.4912,1.4922,1.4921,1.4923,1.4892,1.4891,1.489,1.4889,0,1.4247,1.4277,1.4313,1.436,1.439,1.443,1.4472,1.4485,1.456,1.4584,1.4623,1.4652,1.4707,1.4747,1.4797,1.4831,1.4872,1.488,1.4879,1.4863,1.4842,1.4854,1.493,1.488,1.4881,1.4882,1.4882,1.4883,1.4188,1.4202,1.4259,1.4298,1.4337,1.4376,1.4396,1.4444,1.4478,1.4529,1.4566,1.4602,1.4655,1.4726,1.4758,1.4787,1.4806,1.4805,1.4805,1.4804,1.4798,1.4838,1.4796,1.4797,1.4797,1.4797,1.4797,0,1.4123,1.4164,1.4199,1.4258,1.4288,1.4327,1.4377,1.44,1.4432,1.4479,1.4514,1.456,1.46,1.4658,1.4702,1.4715,1.4735,1.4724,1.4724,1.4731,1.4779,1.4775,1.4707,1.4707,1.4707,1.4707,1.4707,1.4707,1.4092,1.4118,1.4155,1.4202,1.4243,1.4281,1.4306,1.4343,1.4381,1.4429,1.4464,1.4502,1.4554,1.4603,1.4642,1.4658,1.4671,1.4655,1.4676,1.4719,1.4728,1.4736,1.4733,1.4657,1.4657,1.4627,1.4627,1.4627]}]]